Tracking 18796 objects as of 21-September-2017
HD Live streaming from Space Station
objects crossing your sky now

HELIOS 1B

Track HELIOS 1B now!
10-day predictions
HELIOS 1B is classified as:


NORAD ID: 25977
Int'l Code: 1999-064A
Perigee: 628.3 km
Apogee: 630.2 km
Inclination: 98.2 °
Period: 97.1 minutes
Semi major axis: 7000 km
RCS: 8.0113 m2 (large)
Launch date: December 3, 1999
Source: France (FR)
Launch site: FRENCH GUIANA (FRGUI)

Helios 1B was a French military photo-reconnoissance spacecraft launched by an Ariane rocket at 16:22 UT.
aabbcc
Your satellite tracking list
Your tracking list is empty





NASA's NSSDC Master Catalog

Two Line Element Set (TLE):
1 25977U 99064A   17263.81512400  .00000065  00000-0  15111-4 0  9992
2 25977  98.1589  17.1252 0001380  37.8513 322.2797 14.82292723958171
Source of the keplerian elements: AFSPC